Location: Ciserano
(45.5833°N, 9.6000°E)
Time: 06:57:46
(UTC+00:00)

Cosmos 1295 Rocket - Pass Details

Date: 21 April 2021
Orbit: 944 x 993 km, 82.9° (Epoch: 13 May)

Event Time Altitude Azimuth Distance (km) Brightness Sun altitude
Rises 00:20:56 0° 347° (NNW) 3,678 8.4 -30.9°
Reaches altitude 10° 00:23:29 10° 344° (NNW) 2,733 7.5 -30.8°
Enters shadow 00:28:47 52° 296° (WNW) 1,212 4.9 -30.5°
